Location: Newark
(25.6108°S, 54.5803°W)
Time: 21:21:26
(UTC+00:00)

Courier 1B - Pass Details

Date: 30 October 2020
Orbit: 962 x 1209 km, 28.3° (Epoch: 24 November)

Event Time Altitude Azimuth Distance (km) Brightness Sun altitude
Rises 06:53:13 0° 257° (WSW) 4,120 - -25.1°
Reaches altitude 10° 06:56:09 10° 261° (W) 3,154 - -24.6°
Exits shadow 07:01:27 42° 286° (WNW) 1,659 8.2 -23.5°
Maximum altitude 07:03:50 56° 337° (NNW) 1,396 8.0 -23.1°
Drops below altitude 10° 07:11:15 10° 53° (NE) 3,053 10.4 -21.6°
Sets 07:14:03 0° 57° (ENE) 3,980 11.1 -21.1°
